SCP
1 2 2 2 2 2 2 2 2 1 1 1 1 1 1 0 0 0 0 0 0 0 0 0 0 0 0 0 0 0 0 0 0 0 0 0 0 0
1 1 1 2 2 2 2 2 2 2 1 1 1 1 1 0 0 0 0 0 0 0 0 0 0 0 0 0 0 0 0 0 0 0 0 0 0 0
1 1 1 1 2 2 2 2 2 2 2 1 1 1 1 1 1 0 0 0 0 0 0 0 0 0 0 0 0 0 0 0 0 0 0 0 0 0
1 1 1 1 2 2 2 2 2 2 2 1 1 1 1 1 1 1 0 0 0 0 0 0 0 0 0 0 0 0 0 0 0 0 0 0 0 0
1 1 1 1 1 2 2 2 2 2 2 1 1 1 1 1 1 1 1 1 0 0 0 0 0 0 0 0 0 0 0 0 0 0 0 0 0 0
0 0 1 1 1 1 1 2 2 2 2 2 2 1 1 1 1 1 1 1 1 0 0 0 0 0 0 0 0 0 0 0 0 0 0 0 0 0
0 0 0 0 0 1 1 1 1 2 2 2 2 1 1 1 1 1 1 1 1 1 1 1 1 1 0 0 0 0 0 0 0 0 0 0 0 0
0 0 0 0 0 0 0 0 1 1 1 2 2 1 1 1 1 1 1 1 1 1 1 1 2 1 1 0 0 0 0 0 0 0 0 0 0 0
0 0 0 0 0 0 0 0 0 0 1 1 1 1 1 1 1 1 1 1 1 1 1 2 2 2 1 0 0 0 0 0 0 0 0 0 0 0
0 0 0 0 0 0 0 0 0 0 0 1 1 1 0 1 1 1 1 1 1 1 1 1 1 1 1 0 0 0 0 0 0 0 0 0 0 0
0 0 0 0 0 0 0 0 0 0 0 0 0 0 0 0 0 0 0 0 1 1 1 1 1 1 1 0 0 0 0 0 0 0 0 0 0 0
0 0 0 0 0 0 0 0 0 0 0 0 0 0 0 0 0 0 0 0 0 0 0 1 1 1 1 1 0 0 0 0 0 0 0 0 0 0
0 0 0 0 0 0 0 0 0 0 0 0 0 0 0 0 0 0 0 0 0 0 0 0 1 1 1 0 0 0 0 0 0 0 0 0 0 0
0 0 0 0 0 0 0 0 0 0 0 0 0 0 0 0 0 0 0 0 0 0 0 0 0 0 0 0 0 0 0 0 0 0 0 0 0 0
0 0 0 0 0 0 0 0 0 0 0 0 0 0 0 0 0 0 0 0 0 0 0 0 0 0 0 0 0 0 0 0 0 0 0 0 0 0
0 0 0 0 0 0 0 0 0 0 0 0 0 0 0 0 0 0 0 0 0 0 0 0 0 0 0 0 0 0 0 0 0 0 0 0 0 0
0 0 0 0 0 0 0 0 0 0 0 0 0 0 0 0 0 0 0 0 0 0 0 0 0 0 0 0 0 0 0 0 0 0 0 0 0 0
0 0 0 0 0 0 0 0 0 0 0 0 0 0 0 0 0 0 0 0 0 0 0 0 0 0 0 0 0 0 0 0 0 0 0 0 0 0
0 0 0 0 0 0 0 0 0 0 0 0 0 0 0 0 0 0 0 0 0 0 0 0 0 0 0 0 0 0 0 0 0 0 0 0 0 0
0 0 0 0 0 0 0 0 0 0 0 0 0 0 0 0 0 0 0 0 0 0 0 0 0 0 0 0 0 0 0 0 0 0 0 0 0 0
0 0 0 0 0 0 0 0 0 0 0 0 0 0 0 0 0 0 0 0 0 0 0 0 0 0 0 0 0 0 0 0 0 0 0 0 0 0
0 0 0 0 0 0 0 0 0 0 0 0 0 0 0 0 0 0 0 0 0 0 0 0 0 0 0 0 0 0 0 0 0 0 0 0 0 0
0 0 0 0 0 0 0 0 0 0 0 0 0 0 0 0 0 0 0 0 0 0 0 0 0 0 0 0 0 0 0 0 0 0 0 0 0 0
Wind_Speed
9 9 8 8 8 8 7 7 6 5 3 3 3 5 5 6 7 6 9 10 11 12 12 13 14 14 14 14 14 13 13 12 12 12 11 12 12 14
7 8 8 8 7 7 7 6 7 6 4 3 3 6 6 8 9 8 8 11 10 10 11 12 13 13 14 14 14 14 14 13 13 13 13 13 13 15
8 8 9 9 7 7 7 7 7 7 6 4 3 5 8 8 9 8 8 9 10 14 13 12 12 12 13 13 13 13 14 14 14 14 14 15 15 16
8 8 9 8 9 7 7 8 7 7 6 6 4 6 8 8 9 9 8 9 8 14 15 13 12 12 12 12 13 13 13 13 14 14 15 15 16 16
6 7 8 8 8 6 7 7 6 6 5 5 4 4 5 6 8 8 9 6 8 9 13 13 13 12 12 13 13 13 14 14 14 14 14 14 15 15
5 5 6 7 7 7 6 6 5 5 4 4 4 4 4 5 5 5 5 5 6 5 6 8 11 13 13 13 13 13 14 14 15 14 14 14 14 13
4 4 6 8 10 8 6 4 3 3 3 4 4 3 4 4 4 3 3 3 3 3 3 5 7 8 9 10 11 10 12 13 14 13 13 13 12 12
5 5 5 6 7 8 10 10 9 4 3 2 2 2 2 1 1 2 2 3 3 2 2 2 4 4 3 4 4 2 3 7 9 9 10 10 10 9
6 5 5 5 5 5 5 5 8 9 7 4 2 3 3 2 1 0 1 2 2 0 1 3 3 4 4 6 5 5 4 2 1 3 5 5 5 6
7 7 7 7 9 8 4 6 8 9 8 7 7 6 5 3 2 1 1 0 1 1 2 2 3 3 4 5 6 5 5 4 3 2 1 1 2 4
8 9 9 9 12 12 4 6 7 7 8 9 9 7 7 6 3 0 0 2 1 1 2 1 1 2 3 4 5 4 3 3 3 3 2 1 1 5
5 7 11 10 11 13 6 6 7 6 5 6 5 4 5 6 4 3 1 0 1 1 2 2 1 0 2 2 2 2 2 2 2 3 3 1 1 5
4 5 7 9 9 10 8 6 4 5 3 3 4 4 4 4 5 5 4 3 2 2 1 0 0 0 1 2 2 1 2 2 0 3 4 3 1 4
2 3 5 5 6 7 6 5 5 7 1 3 3 4 4 5 5 5 6 5 5 5 2 1 0 1 2 3 3 3 2 2 2 2 2 5 4 4
3 5 4 3 3 0 3 4 5 4 3 2 3 4 4 4 2 3 4 4 5 5 5 4 2 1 1 2 3 2 2 3 3 3 3 4 4 3
3 1 2 2 3 2 2 2 2 3 4 3 3 2 1 1 1 1 1 2 4 6 6 5 5 4 4 4 4 4 4 4 4 4 3 3 4 5
5 5 4 3 3 2 2 1 2 2 2 2 3 3 2 1 1 1 1 1 1 3 5 4 4 4 5 3 3 3 3 4 4 4 3 3 4 5
2 3 4 6 6 6 6 4 3 2 3 4 4 4 4 4 2 2 3 3 2 1 2 3 3 4 4 3 4 2 2 3 3 3 4 3 3 4
2 1 0 3 5 7 7 7 6 5 4 5 5 5 5 5 5 5 4 4 3 3 2 2 3 4 4 4 4 1 2 2 2 2 3 3 3 4
3 2 2 2 2 3 5 7 8 7 6 5 5 5 5 6 6 6 6 6 5 4 4 4 4 4 4 3 2 5 2 2 2 3 3 3 2 2
3 2 1 1 2 2 2 4 6 7 7 7 6 6 6 6 7 7 7 5 6 7 6 5 3 2 3 3 5 4 6 4 1 3 5 6 5 4
4 3 2 2 2 2 3 3 4 4 5 6 6 6 6 6 6 7 7 6 6 8 8 5 4 5 6 7 7 5 5 7 6 6 6 4 5 6
4 4 4 3 3 3 3 4 6 4 4 5 6 6 7 7 7 6 6 6 6 5 6 6 4 5 7 8 8 7 7 7 6 7 7 10 9 8
Wind_Direction
272 267 264 268 260 257 250 245 249 258 248 200 183 142 158 139 152 157 149 153 157 162 169 176 181 188 193 198 204 210 216 221 226 232 238 245 252 257
278 280 277 270 265 258 250 243 241 247 251 211 203 168 168 165 174 180 167 165 184 187 191 194 197 201 203 206 209 213 219 224 229 233 237 242 247 252
291 287 284 281 271 260 247 239 236 235 241 238 213 173 178 192 175 194 187 193 197 198 205 209 210 209 210 213 216 219 223 227 232 235 239 242 246 251
304 303 297 292 280 266 254 243 238 233 237 241 217 194 194 196 191 202 205 211 221 190 200 210 215 217 218 219 222 225 229 233 236 239 242 245 249 253
320 317 317 311 298 283 266 255 245 238 229 237 226 202 196 193 197 207 215 226 237 185 192 206 214 218 221 223 226 230 233 237 240 244 246 249 252 254
348 348 349 344 332 315 285 269 255 243 230 231 226 207 197 190 196 199 207 209 237 221 193 195 196 208 219 224 228 233 236 238 241 244 247 250 253 253
17 19 23 22 21 6 351 333 300 265 246 236 230 216 197 186 191 193 198 197 226 245 208 191 179 192 196 209 220 230 234 236 237 240 244 248 252 254
31 34 32 30 36 43 42 40 31 6 320 280 242 227 193 161 166 186 179 189 206 216 218 189 163 164 156 110 54 14 251 236 234 235 238 242 248 252
34 35 40 35 18 33 49 65 60 48 24 358 46 54 68 58 47 181 215 214 215 353 246 189 150 135 114 87 59 40 38 51 212 228 229 228 232 240
44 41 45 41 24 1 38 57 57 44 30 42 60 58 51 43 44 33 22 284 144 29 315 215 169 151 132 106 90 60 52 50 59 73 95 168 193 209
55 43 34 44 15 349 40 69 72 81 79 67 63 73 65 47 25 42 200 222 195 87 350 312 164 162 145 125 117 115 86 70 62 63 65 86 206 223
80 77 56 29 12 0 27 60 66 62 76 102 106 132 105 88 67 40 3 276 144 109 16 346 29 199 148 101 70 84 120 136 148 112 93 89 306 264
63 58 48 23 17 8 1 40 27 342 53 82 99 101 104 89 74 62 31 21 60 94 111 228 180 193 160 138 110 58 22 6 298 154 136 122 59 328
41 50 53 24 15 14 18 15 323 300 7 63 66 56 48 54 59 58 53 51 47 67 54 322 168 191 189 171 154 146 116 53 7 9 46 150 153 125
22 40 21 356 312 36 38 336 309 321 6 31 54 59 56 50 61 109 108 108 96 74 61 26 33 55 46 96 106 119 124 94 51 34 37 33 27 63
353 92 222 267 270 293 281 287 333 3 341 343 1 29 65 107 69 43 103 138 125 106 85 61 43 47 79 78 83 84 70 57 47 27 23 54 50 54
346 333 320 302 275 261 263 292 307 302 302 316 306 295 276 241 162 126 318 254 169 132 131 122 103 76 50 23 94 87 82 72 53 12 329 69 66 57
25 3 348 340 332 325 316 304 288 302 324 314 302 296 289 276 248 207 218 234 218 189 136 139 159 165 159 104 17 31 63 57 57 25 348 13 56 55
205 155 36 345 331 327 325 319 316 320 317 298 296 292 286 276 263 247 234 233 232 222 205 201 226 242 238 177 144 320 2 13 352 28 22 354 358 15
252 227 200 205 250 290 312 321 321 317 307 298 296 295 289 280 269 256 246 240 237 229 220 213 227 250 281 317 144 154 197 294 335 349 347 323 323 248
300 296 283 261 253 262 282 296 300 306 316 314 304 301 294 286 278 270 260 241 248 248 243 231 189 206 266 281 262 204 158 168 318 329 332 327 333 329
308 306 317 321 322 315 298 298 294 298 309 306 314 315 308 300 292 282 279 271 249 248 253 248 168 202 230 241 252 240 191 174 186 214 250 281 333 341
321 326 327 327 308 295 316 315 305 310 322 325 324 323 322 317 309 301 293 285 284 282 275 272 256 237 241 241 247 250 228 209 221 213 202 190 210 235